When you browse on this site, cookies collect data to enhance your experience and personalize the content and advertising you see.
Visit our Privacy Policy to learn more. By continuing to use the site, you agree to this use of cookies and data.
  • In Sweden
  • List of Countries
  • For 7 days
  • Water Temperature
  • Weather Map
  • Weather Widgets
  • user-avatar
    Login

    Hourly Weather Iva

    Today, 21 September, Saturday

    Time Temperature Precipitation Wind Pressure Humidity
    00:00 +7°C° 0 mm 1 mps 743 mmHg 90%
    01:00 +6°C° 0 mm 1 mps 743 mmHg 91%
    02:00 +6°C° 0 mm 1 mps 743 mmHg 93%
    03:00 +5°C° 0 mm 1 mps 743 mmHg 95%
    04:00 +5°C° 0 mm 1 mps 743 mmHg 94%
    05:00 +5°C° 0 mm 1 mps 743 mmHg 94%
    06:00 +5°C° 0 mm 1 mps 743 mmHg 93%
    07:00 +6°C° 0 mm 1 mps 743 mmHg 88%
    08:00 +7°C° 0 mm 1 mps 743 mmHg 83%
    09:00 +8°C° 0 mm 1 mps 743 mmHg 78%
    10:00 +9°C° 0 mm 1 mps 743 mmHg 72%
    11:00 +9°C° 0 mm 2 mps 743 mmHg 67%
    12:00 +10°C° 0 mm 2 mps 742 mmHg 61%
    13:00 +10°C° 0.2 mm 2 mps 742 mmHg 62%
    14:00 +10°C° 0.2 mm 3 mps 742 mmHg 63%
    15:00 +10°C° 0.2 mm 3 mps 742 mmHg 65%
    16:00 +9°C° 0.3 mm 3 mps 742 mmHg 71%
    17:00 +7°C° 0.3 mm 3 mps 741 mmHg 78%
    18:00 +5°C° 0.3 mm 3 mps 741 mmHg 85%
    19:00 +5°C° 0 mm 2 mps 741 mmHg 88%
    20:00 +5°C° 0 mm 2 mps 741 mmHg 90%
    21:00 +4°C° 0 mm 2 mps 741 mmHg 93%
    22:00 +4°C° 0 mm 2 mps 741 mmHg 93%
    23:00 +3°C° 0 mm 2 mps 741 mmHg 93%

    Tomorrow, 22 September, Sunday

    Time Temperature Precipitation Wind Pressure Humidity
    00:00 +3°C° 0 mm 2 mps 740 mmHg 93%
    01:00 +3°C° 0 mm 2 mps 740 mmHg 92%
    02:00 +2°C° 0 mm 2 mps 740 mmHg 92%
    03:00 +2°C° 0 mm 2 mps 739 mmHg 91%
    04:00 +2°C° 0 mm 2 mps 739 mmHg 90%
    05:00 +2°C° 0 mm 2 mps 738 mmHg 90%
    06:00 +1°C° 0 mm 3 mps 738 mmHg 89%
    07:00 +1°C° 0 mm 4 mps 737 mmHg 83%
    08:00 +3°C° 0 mm 5 mps 736 mmHg 78%
    09:00 +4°C° 0 mm 6 mps 735 mmHg 72%
    10:00 +3°C° 0.2 mm 7 mps 734 mmHg 79%
    11:00 +3°C° 0.2 mm 7 mps 733 mmHg 86%
    12:00 +1°C° 0.2 mm 8 mps 732 mmHg 93%
    13:00 +1°C° 0.7 mm 8 mps 731 mmHg 93%
    14:00 +3°C° 0.7 mm 7 mps 730 mmHg 92%
    15:00 +4°C° 0.7 mm 6 mps 730 mmHg 92%
    16:00 +3°C° 0.5 mm 6 mps 729 mmHg 89%
    17:00 +3°C° 0.5 mm 6 mps 729 mmHg 86%
    18:00 +3°C° 0.5 mm 7 mps 729 mmHg 83%
    19:00 +2°C° 0.3 mm 7 mps 729 mmHg 87%
    20:00 0°C° 0.3 mm 8 mps 729 mmHg 91%
    21:00 0°C° 0.3 mm 9 mps 729 mmHg 96%
    22:00 0°C° 0.3 mm 9 mps 730 mmHg 95%
    23:00 0°C° 0.3 mm 9 mps 730 mmHg 95%

    Day after tomorrow, 23 September, Monday

    Time Temperature Precipitation Wind Pressure Humidity
    00:00 0°C° 0.3 mm 10 mps 730 mmHg 94%
    01:00 0°C° 0.3 mm 9 mps 732 mmHg 91%
    02:00 0°C° 0.3 mm 9 mps 733 mmHg 89%
    03:00 +1°C° 0.3 mm 9 mps 734 mmHg 86%
    04:00 0°C° 0.1 mm 8 mps 735 mmHg 86%
    05:00 0°C° 0.1 mm 8 mps 736 mmHg 87%
    06:00 0°C° 0.1 mm 8 mps 737 mmHg 87%
    07:00 0°C° 0 mm 8 mps 738 mmHg 85%
    08:00 0°C° 0 mm 7 mps 739 mmHg 82%
    09:00 0°C° 0 mm 7 mps 740 mmHg 80%
    10:00 0°C° 0 mm 7 mps 740 mmHg 81%
    11:00 0°C° 0 mm 7 mps 741 mmHg 81%
    12:00 0°C° 0 mm 8 mps 741 mmHg 82%
    13:00 +1°C° 0 mm 8 mps 741 mmHg 79%
    14:00 +2°C° 0 mm 8 mps 742 mmHg 75%
    15:00 +2°C° 0 mm 8 mps 742 mmHg 72%
    16:00 +3°C° 0.1 mm 7 mps 742 mmHg 73%
    17:00 +2°C° 0.1 mm 6 mps 742 mmHg 75%
    18:00 +2°C° 0.1 mm 6 mps 743 mmHg 76%
    19:00 +2°C° 0 mm 5 mps 743 mmHg 78%
    20:00 +1°C° 0 mm 5 mps 743 mmHg 79%
    21:00 0°C° 0 mm 4 mps 744 mmHg 81%
    22:00 0°C° 0 mm 4 mps 744 mmHg 82%
    23:00 0°C° 0 mm 5 mps 744 mmHg 84%

    24 September, Tuesday

    Time Temperature Precipitation Wind Pressure Humidity
    00:00 0°C° 0 mm 5 mps 744 mmHg 85%
    01:00 -1°C° 0 mm 4 mps 745 mmHg 87%
    02:00 -1°C° 0 mm 4 mps 745 mmHg 88%
    03:00 -2°C° 0 mm 4 mps 745 mmHg 90%
    04:00 -2°C° 0 mm 4 mps 745 mmHg 91%
    05:00 -2°C° 0 mm 3 mps 745 mmHg 93%
    06:00 -2°C° 0 mm 3 mps 746 mmHg 95%
    07:00 0°C° 0 mm 3 mps 746 mmHg 88%
    08:00 0°C° 0 mm 4 mps 746 mmHg 82%
    09:00 +3°C° 0 mm 4 mps 746 mmHg 76%
    10:00 +4°C° 0.1 mm 4 mps 746 mmHg 70%
    11:00 +5°C° 0.1 mm 4 mps 747 mmHg 65%
    12:00 +6°C° 0.1 mm 5 mps 747 mmHg 60%
    13:00 +6°C° 0.1 mm 5 mps 747 mmHg 59%
    14:00 +6°C° 0.1 mm 5 mps 746 mmHg 59%
    15:00 +6°C° 0.1 mm 5 mps 746 mmHg 58%
    16:00 +5°C° 0.1 mm 4 mps 746 mmHg 64%
    17:00 +4°C° 0.1 mm 3 mps 746 mmHg 69%
    18:00 +3°C° 0.1 mm 3 mps 746 mmHg 75%
    19:00 +3°C° 0 mm 2 mps 746 mmHg 78%
    20:00 +3°C° 0 mm 2 mps 747 mmHg 81%
    21:00 +2°C° 0 mm 2 mps 747 mmHg 84%
    22:00 +2°C° 0 mm 2 mps 747 mmHg 85%
    23:00 +1°C° 0 mm 2 mps 747 mmHg 87%

    25 September, Wednesday

    Time Temperature Precipitation Wind Pressure Humidity
    00:00 +1°C° 0 mm 2 mps 747 mmHg 89%
    01:00 +1°C° 0 mm 2 mps 747 mmHg 89%
    02:00 +1°C° 0 mm 2 mps 747 mmHg 90%
    03:00 -1°C° 0 mm 2 mps 747 mmHg 90%
    04:00 -1°C° 0 mm 2 mps 747 mmHg 91%
    05:00 -1°C° 0 mm 2 mps 747 mmHg 91%
    06:00 -1°C° 0 mm 2 mps 747 mmHg 92%
    07:00 +1°C° 0 mm 2 mps 748 mmHg 85%
    08:00 +3°C° 0 mm 2 mps 748 mmHg 78%
    09:00 +4°C° 0 mm 3 mps 748 mmHg 71%
    10:00 +5°C° 0 mm 3 mps 748 mmHg 66%
    11:00 +5°C° 0 mm 3 mps 748 mmHg 62%
    12:00 +7°C° 0 mm 3 mps 748 mmHg 57%
    13:00 +7°C° 0 mm 3 mps 748 mmHg 57%
    14:00 +7°C° 0 mm 3 mps 748 mmHg 57%
    15:00 +7°C° 0 mm 3 mps 748 mmHg 56%
    16:00 +7°C° 0 mm 2 mps 748 mmHg 60%
    17:00 +7°C° 0 mm 1 mps 748 mmHg 64%
    18:00 +6°C° 0 mm 1 mps 748 mmHg 68%
    19:00 +6°C° 0 mm 1 mps 749 mmHg 68%
    20:00 +6°C° 0 mm 1 mps 749 mmHg 69%
    21:00 +6°C° 0 mm 1 mps 749 mmHg 69%
    22:00 +5°C° 0 mm 1 mps 749 mmHg 72%
    23:00 +4°C° 0 mm 1 mps 749 mmHg 75%

    26 September, Thursday

    Time Temperature Precipitation Wind Pressure Humidity
    00:00 +4°C° 0 mm 1 mps 749 mmHg 78%
    01:00 +3°C° 0 mm 1 mps 749 mmHg 78%
    02:00 +3°C° 0 mm 1 mps 749 mmHg 79%
    03:00 +2°C° 0 mm 1 mps 750 mmHg 79%
    04:00 +2°C° 0 mm 1 mps 750 mmHg 79%
    05:00 0°C° 0 mm 0 mps 750 mmHg 79%
    06:00 0°C° 0 mm 0 mps 750 mmHg 79%
    07:00 +2°C° 0 mm 0 mps 750 mmHg 73%
    08:00 +4°C° 0 mm 0 mps 750 mmHg 66%
    09:00 +6°C° 0 mm 0 mps 750 mmHg 59%
    10:00 +6°C° 0 mm 0 mps 751 mmHg 56%
    11:00 +7°C° 0 mm 0 mps 751 mmHg 52%
    12:00 +8°C° 0 mm 0 mps 751 mmHg 49%
    13:00 +8°C° 0 mm 0 mps 751 mmHg 48%
    14:00 +9°C° 0 mm 0 mps 750 mmHg 47%
    15:00 +9°C° 0 mm 0 mps 750 mmHg 46%
    16:00 +8°C° 0 mm 0 mps 750 mmHg 49%
    17:00 +8°C° 0 mm 1 mps 750 mmHg 53%
    18:00 +7°C° 0 mm 1 mps 750 mmHg 57%
    19:00 +6°C° 0 mm 1 mps 750 mmHg 59%
    20:00 +5°C° 0 mm 2 mps 750 mmHg 60%
    21:00 +5°C° 0 mm 2 mps 750 mmHg 61%
    22:00 +4°C° 0 mm 2 mps 750 mmHg 63%
    23:00 +3°C° 0 mm 3 mps 750 mmHg 65%
    Show more